COSMOS 2251 DEB, 38055

Orbit data source: Space-Track

COSMOS 2251 DEB, 38055 is space debris in LEO originally from a launch on Wed, 16 Jun 1993 UTC launched from the Plesetsk Missile And Space Complex (PKMTR). The debris from Iridium 33, an American commercial communications satellite, has been tracked extensively since its accidental collision with the defunct Russian satellite Cosmos 2251 in 2009. This event, occurring at high speed in low Earth orbit (LEO), generated thousands of pieces of space debris, significantly increasing the risk of further collisions. The Iridium 33 debris cloud has impacted space traffic management and orbital debris mitigation strategies, making it a subject of ongoing study in space situational awareness.

Loading next visibility...
Identifier
38055, 1993-036BRM
Orbit
LEO
Country
Flag of CISCIS
Related business
Manufacturer
Unknown
Mission
Spacecraft
Bus & Motor
Unknown
Mass
Unknown
Launch date (UTC)
1993-06-16 (33 years ago)
Launch vehicle
Unknown
Launch site
Plesetsk Missile And Space Complex (PKMTR)
Object type
Payload
Rocket body
Debris
Shape & HBR
Unknown shape, 0.1 m
Radar Cross Section
Small (<0.1 m²)

Expand to show TLE details & history
Last TLE update: 23 hours ago

TLE from 23 hours ago
0 COSMOS 2251 DEB
1 38055U 93036BRM 26164.87239498  .00003744  00000-0  49222-3 0  9991
2 38055  74.0083 206.4361 0065432 289.0745 248.0391 14.79106204633881
Epoch: 2026-06-13T20:56Z
TLE epoch observation values (Epoch: 2026-06-13T20:56:14.926Z)
Latitude
3.34911°
Longitude
169.23689°
Altitude
651.85 km
Speed
7.523 km/s
True Right ascension
01h 41m 55s
True Declination
3° 19' 44"
Sunlit
Object was in daylight at epoch
Visualization orbit readout
Latitude
Unknown
Longitude
Unknown
Altitude
Unknown
Speed
Unknown
Apparent Right ascension
Unknown
Apparent Declination
Unknown
Sunlit
N/A
Visualization observer readout
Local Sidereal Time
06:45:37
Azimuth
Unknown
Elevation
Unknown
Doppler factor
Unknown
Orbital elements
Apogee altitude
675.579 km
Perigee altitude
583.872 km
Semi-major axis
7,007.863 km
Eccentricity
0.00654
Inclination
74.0083°
RAAN
206.4361°
Arg. of periapsis
289.0745°
True anomaly
247.34585°
Mean anomaly
248.0391°
Eccentric anomaly
247.69226°
Mean motion
3.69969 °/min
Orbital period
97.31 mins
BSTAR
0.00049222

Documentation

Showing up to 5 results
|